TimeCST,TemperatureF,Dew PointF,Humidity,Sea Level PressureIn,VisibilityMPH,Wind Direction,Wind SpeedMPH,Gust SpeedMPH,PrecipitationIn,Events,Conditions,WindDirDegrees,DateUTC
12:15 AM,28.2,21.0,74,30.36,10.0,Calm,Calm,-,N/A,,Overcast,0,2013-02-09 06:15:00
12:35 AM,27.9,21.2,76,30.37,10.0,Calm,Calm,-,N/A,,Overcast,0,2013-02-09 06:35:00
12:55 AM,27.5,21.2,77,30.37,10.0,Calm,Calm,-,N/A,,Overcast,0,2013-02-09 06:55:00
1:15 AM,27.3,21.2,78,30.37,10.0,Calm,Calm,-,N/A,,Overcast,0,2013-02-09 07:15:00
1:35 AM,27.1,21.2,78,30.37,10.0,Calm,Calm,-,N/A,,Overcast,0,2013-02-09 07:35:00
1:55 AM,27.1,20.8,77,30.36,10.0,ESE,3.5,-,N/A,,Overcast,110,2013-02-09 07:55:00
2:15 AM,25.5,20.3,81,30.36,10.0,ESE,5.8,-,N/A,,Overcast,110,2013-02-09 08:15:00
2:35 AM,24.4,19.0,80,30.36,10.0,ESE,4.6,-,N/A,,Overcast,110,2013-02-09 08:35:00
2:55 AM,23.7,19.2,83,30.37,10.0,Calm,Calm,-,N/A,,Overcast,0,2013-02-09 08:55:00
3:15 AM,24.4,19.9,83,30.37,10.0,Calm,Calm,-,N/A,,Overcast,0,2013-02-09 09:15:00
3:35 AM,24.8,19.4,80,30.38,10.0,Calm,Calm,-,N/A,,Overcast,0,2013-02-09 09:35:00
3:55 AM,21.9,18.3,86,30.37,10.0,Calm,Calm,-,N/A,,Mostly Cloudy,0,2013-02-09 09:55:00
4:15 AM,22.1,18.5,86,30.37,10.0,East,4.6,-,N/A,,Mostly Cloudy,100,2013-02-09 10:15:00
4:35 AM,20.7,17.2,87,30.37,10.0,East,4.6,-,N/A,,Mostly Cloudy,80,2013-02-09 10:35:00
4:55 AM,20.3,17.6,89,30.37,10.0,Calm,Calm,-,N/A,,Mostly Cloudy,0,2013-02-09 10:55:00
5:15 AM,17.2,14.4,88,30.37,10.0,Calm,Calm,-,N/A,,Overcast,0,2013-02-09 11:15:00
5:35 AM,16.5,14.4,91,30.38,10.0,Calm,Calm,-,N/A,,Mostly Cloudy,0,2013-02-09 11:35:00
5:55 AM,16.5,14.9,93,30.39,7.0,Calm,Calm,-,N/A,,Overcast,0,2013-02-09 11:55:00
6:15 AM,17.4,16.0,94,30.39,7.0,Calm,Calm,-,N/A,,Overcast,0,2013-02-09 12:15:00
6:35 AM,18.3,17.2,96,30.39,7.0,Calm,Calm,-,N/A,,Overcast,0,2013-02-09 12:35:00
6:55 AM,16.3,15.3,96,30.39,7.0,Calm,Calm,-,N/A,,Overcast,0,2013-02-09 12:55:00
7:15 AM,16.9,15.6,95,30.39,5.0,Calm,Calm,-,N/A,,Overcast,0,2013-02-09 13:15:00
7:35 AM,18.9,18.1,97,30.39,7.0,Calm,Calm,-,N/A,,Overcast,0,2013-02-09 13:35:00
7:55 AM,20.1,19.2,96,30.39,7.0,East,3.5,-,N/A,,Overcast,100,2013-02-09 13:55:00
8:15 AM,21.2,19.9,95,30.39,7.0,Calm,Calm,-,N/A,,Mostly Cloudy,0,2013-02-09 14:15:00
8:35 AM,22.1,19.4,89,30.39,7.0,Calm,Calm,-,N/A,,Clear,0,2013-02-09 14:35:00
8:55 AM,24.1,20.1,85,30.38,7.0,ESE,3.5,-,N/A,,Clear,120,2013-02-09 14:55:00
9:15 AM,24.8,20.7,84,30.38,7.0,SE,3.5,-,N/A,,Clear,130,2013-02-09 15:15:00
9:35 AM,26.4,21.7,82,30.38,10.0,SSE,3.5,-,N/A,,Clear,150,2013-02-09 15:35:00
9:55 AM,28.0,22.6,80,30.37,10.0,SSE,6.9,-,N/A,,Clear,160,2013-02-09 15:55:00
10:15 AM,28.9,22.1,76,30.38,10.0,South,5.8,-,N/A,,Scattered Clouds,190,2013-02-09 16:15:00
10:35 AM,29.3,21.9,74,30.38,10.0,South,5.8,-,N/A,,Mostly Cloudy,170,2013-02-09 16:35:00
10:55 AM,29.5,21.6,72,30.37,10.0,South,3.5,-,N/A,,Mostly Cloudy,170,2013-02-09 16:55:00
11:15 AM,30.2,21.4,70,30.36,10.0,South,8.1,-,N/A,,Scattered Clouds,170,2013-02-09 17:15:00
11:35 AM,30.9,21.4,68,30.36,10.0,South,6.9,-,N/A,,Scattered Clouds,180,2013-02-09 17:35:00
11:55 AM,31.1,21.9,69,30.35,10.0,South,9.2,-,N/A,,Scattered Clouds,190,2013-02-09 17:55:00
12:15 PM,31.1,22.3,70,30.33,10.0,South,6.9,16.1,N/A,,Scattered Clouds,180,2013-02-09 18:15:00
12:35 PM,31.6,22.1,68,30.33,10.0,South,12.7,-,N/A,,Scattered Clouds,170,2013-02-09 18:35:00
12:55 PM,32.0,22.5,68,30.31,10.0,South,12.7,-,N/A,,Clear,180,2013-02-09 18:55:00
1:15 PM,32.4,23.4,69,30.30,10.0,South,6.9,-,N/A,,Clear,170,2013-02-09 19:15:00
1:35 PM,32.9,23.0,67,30.28,10.0,South,10.4,-,N/A,,Clear,180,2013-02-09 19:35:00
1:55 PM,33.1,23.4,67,30.28,10.0,South,9.2,-,N/A,,Clear,170,2013-02-09 19:55:00
2:15 PM,33.6,23.7,67,30.27,10.0,South,10.4,17.3,N/A,,Clear,170,2013-02-09 20:15:00
2:35 PM,34.0,23.5,66,30.28,10.0,South,12.7,17.3,N/A,,Clear,170,2013-02-09 20:35:00
2:55 PM,34.2,23.9,66,30.27,10.0,South,11.5,-,N/A,,Clear,170,2013-02-09 20:55:00
3:15 PM,34.0,23.7,66,30.27,10.0,SSE,6.9,-,N/A,,Clear,160,2013-02-09 21:15:00
3:35 PM,34.2,24.6,68,30.26,10.0,SSE,8.1,-,N/A,,Clear,160,2013-02-09 21:35:00
3:55 PM,34.5,24.6,67,30.25,10.0,South,8.1,-,N/A,,Clear,170,2013-02-09 21:55:00
4:15 PM,34.2,24.3,67,30.24,10.0,SSE,8.1,-,N/A,,Clear,160,2013-02-09 22:15:00
4:35 PM,33.8,24.3,68,30.23,10.0,SSE,9.2,-,N/A,,Clear,160,2013-02-09 22:35:00
4:55 PM,33.1,23.9,69,30.22,10.0,SSE,6.9,-,N/A,,Clear,150,2013-02-09 22:55:00
5:15 PM,32.0,23.9,72,30.22,10.0,SSE,6.9,-,N/A,,Clear,150,2013-02-09 23:15:00
5:35 PM,31.5,23.9,74,30.22,10.0,SE,5.8,-,N/A,,Clear,140,2013-02-09 23:35:00
5:55 PM,31.1,23.9,75,30.21,10.0,SE,6.9,-,N/A,,Scattered Clouds,140,2013-02-09 23:55:00
6:15 PM,30.6,24.1,77,30.21,10.0,SE,5.8,-,N/A,,Scattered Clouds,140,2013-02-10 00:15:00
6:35 PM,31.1,24.8,77,30.21,10.0,SE,6.9,-,N/A,,Clear,140,2013-02-10 00:35:00
6:55 PM,30.7,24.4,77,30.21,10.0,SE,8.1,-,N/A,,Scattered Clouds,140,2013-02-10 00:55:00
7:15 PM,30.0,23.9,78,30.20,10.0,SE,6.9,-,N/A,,Scattered Clouds,130,2013-02-10 01:15:00
7:35 PM,29.8,23.9,79,30.19,10.0,SE,6.9,-,N/A,,Scattered Clouds,130,2013-02-10 01:35:00
7:55 PM,30.0,24.6,80,30.19,10.0,SE,6.9,-,N/A,,Clear,140,2013-02-10 01:55:00
8:15 PM,30.4,24.8,80,30.19,10.0,SE,8.1,-,N/A,,Clear,140,2013-02-10 02:15:00
8:35 PM,30.6,24.8,79,30.19,10.0,SSE,9.2,-,N/A,,Clear,150,2013-02-10 02:35:00
8:55 PM,30.7,24.3,77,30.19,10.0,SE,5.8,-,N/A,,Clear,140,2013-02-10 02:55:00
9:15 PM,30.4,23.7,76,30.19,10.0,SE,6.9,-,N/A,,Scattered Clouds,140,2013-02-10 03:15:00
9:35 PM,30.4,23.9,77,30.17,10.0,SE,8.1,-,N/A,,Clear,140,2013-02-10 03:35:00
9:55 PM,30.7,23.9,76,30.17,10.0,SSE,10.4,-,N/A,,Clear,150,2013-02-10 03:55:00
10:15 PM,30.9,23.0,72,30.16,10.0,SSE,8.1,-,N/A,,Clear,150,2013-02-10 04:15:00
10:35 PM,29.8,22.5,74,30.15,10.0,SE,5.8,-,N/A,,Scattered Clouds,140,2013-02-10 04:35:00
10:55 PM,29.8,22.5,74,30.14,10.0,SE,5.8,-,N/A,,Mostly Cloudy,130,2013-02-10 04:55:00
11:15 PM,29.7,22.5,75,30.14,10.0,SE,6.9,-,N/A,,Scattered Clouds,140,2013-02-10 05:15:00
11:35 PM,30.4,22.1,71,30.13,10.0,SE,6.9,-,N/A,,Clear,140,2013-02-10 05:35:00
11:55 PM,31.1,22.1,69,30.13,10.0,SE,8.1,-,N/A,,Clear,140,2013-02-10 05:55:00